• In Hungary
  • List of Countries
  • For 7 days
  • Water Temperature
  • Satellite Maps
  • Weather Map
  • News
  • Weather Widgets
  • user-avatar
    Login

    Hourly Weather San Juan de Aznalfarache

    Today, 22 September, Saturday

    Time Temperature Precipitation Wind Pressure Humidity
    00:00 +29°C° 0 mm 1 mps 759 mmHg 42%
    01:00 +28°C° 0 mm 1 mps 759 mmHg 43%
    02:00 +28°C° 0 mm 1 mps 759 mmHg 44%
    03:00 +27°C° 0 mm 1 mps 759 mmHg 44%
    04:00 +27°C° 0 mm 1 mps 759 mmHg 44%
    05:00 +27°C° 0 mm 1 mps 759 mmHg 44%
    06:00 +27°C° 0 mm 1 mps 759 mmHg 44%
    07:00 +29°C° 0 mm 2 mps 759 mmHg 39%
    08:00 +31°C° 0 mm 2 mps 760 mmHg 34%
    09:00 +34°C° 0 mm 2 mps 760 mmHg 30%
    10:00 +35°C° 0 mm 2 mps 760 mmHg 27%
    11:00 +37°C° 0 mm 2 mps 760 mmHg 24%
    12:00 +39°C° 0 mm 3 mps 760 mmHg 21%
    13:00 +39°C° 0 mm 3 mps 759 mmHg 20%
    14:00 +40°C° 0 mm 3 mps 759 mmHg 19%
    15:00 +40°C° 0 mm 3 mps 759 mmHg 18%
    16:00 +39°C° 0 mm 3 mps 759 mmHg 20%
    17:00 +37°C° 0 mm 3 mps 759 mmHg 22%
    18:00 +36°C° 0 mm 2 mps 759 mmHg 24%
    19:00 +34°C° 0 mm 2 mps 759 mmHg 27%
    20:00 +32°C° 0 mm 2 mps 760 mmHg 30%
    21:00 +30°C° 0 mm 2 mps 760 mmHg 33%
    22:00 +30°C° 0 mm 1 mps 760 mmHg 34%
    23:00 +29°C° 0 mm 1 mps 760 mmHg 35%

    Tomorrow, 23 September, Sunday

    Time Temperature Precipitation Wind Pressure Humidity
    00:00 +29°C° 0 mm 1 mps 760 mmHg 36%
    01:00 +28°C° 0 mm 1 mps 760 mmHg 37%
    02:00 +28°C° 0 mm 1 mps 760 mmHg 37%
    03:00 +27°C° 0 mm 1 mps 759 mmHg 38%
    04:00 +27°C° 0 mm 1 mps 759 mmHg 38%
    05:00 +27°C° 0 mm 1 mps 759 mmHg 39%
    06:00 +27°C° 0 mm 1 mps 759 mmHg 39%
    07:00 +28°C° 0 mm 2 mps 760 mmHg 35%
    08:00 +30°C° 0 mm 2 mps 760 mmHg 32%
    09:00 +32°C° 0 mm 2 mps 760 mmHg 28%
    10:00 +35°C° 0 mm 2 mps 760 mmHg 25%
    11:00 +37°C° 0 mm 2 mps 760 mmHg 22%
    12:00 +39°C° 0 mm 3 mps 760 mmHg 19%
    13:00 +39°C° 0 mm 3 mps 759 mmHg 18%
    14:00 +40°C° 0 mm 3 mps 759 mmHg 17%
    15:00 +40°C° 0 mm 3 mps 758 mmHg 16%
    16:00 +39°C° 0 mm 3 mps 758 mmHg 17%
    17:00 +37°C° 0 mm 3 mps 758 mmHg 19%
    18:00 +36°C° 0 mm 3 mps 758 mmHg 20%
    19:00 +35°C° 0 mm 2 mps 759 mmHg 23%
    20:00 +32°C° 0 mm 2 mps 759 mmHg 25%
    21:00 +30°C° 0 mm 1 mps 760 mmHg 27%
    22:00 +30°C° 0 mm 1 mps 759 mmHg 28%
    23:00 +29°C° 0 mm 1 mps 759 mmHg 30%

    Day after tomorrow, 24 September, Monday

    Time Temperature Precipitation Wind Pressure Humidity
    00:00 +29°C° 0 mm 1 mps 759 mmHg 31%
    01:00 +28°C° 0 mm 1 mps 759 mmHg 31%
    02:00 +28°C° 0 mm 1 mps 759 mmHg 32%
    03:00 +27°C° 0 mm 1 mps 759 mmHg 33%
    04:00 +27°C° 0 mm 1 mps 759 mmHg 33%
    05:00 +27°C° 0 mm 1 mps 759 mmHg 33%
    06:00 +27°C° 0 mm 1 mps 759 mmHg 33%
    07:00 +29°C° 0 mm 1 mps 759 mmHg 30%
    08:00 +31°C° 0 mm 2 mps 759 mmHg 26%
    09:00 +32°C° 0 mm 2 mps 760 mmHg 23%
    10:00 +35°C° 0 mm 2 mps 759 mmHg 21%
    11:00 +37°C° 0 mm 2 mps 759 mmHg 19%
    12:00 +39°C° 0 mm 2 mps 759 mmHg 16%
    13:00 +39°C° 0 mm 2 mps 759 mmHg 16%
    14:00 +40°C° 0 mm 2 mps 758 mmHg 16%
    15:00 +40°C° 0 mm 2 mps 758 mmHg 15%
    16:00 +39°C° 0 mm 2 mps 758 mmHg 17%
    17:00 +38°C° 0 mm 3 mps 757 mmHg 19%
    18:00 +36°C° 0 mm 3 mps 757 mmHg 22%
    19:00 +35°C° 0 mm 2 mps 758 mmHg 24%
    20:00 +32°C° 0 mm 2 mps 758 mmHg 27%
    21:00 +30°C° 0 mm 2 mps 759 mmHg 30%
    22:00 +30°C° 0 mm 1 mps 759 mmHg 31%
    23:00 +29°C° 0 mm 1 mps 759 mmHg 32%

    25 September, Tuesday

    Time Temperature Precipitation Wind Pressure Humidity
    00:00 +29°C° 0 mm 1 mps 759 mmHg 33%
    01:00 +28°C° 0 mm 1 mps 758 mmHg 34%
    02:00 +28°C° 0 mm 1 mps 758 mmHg 36%
    03:00 +27°C° 0 mm 1 mps 758 mmHg 37%
    04:00 +27°C° 0 mm 1 mps 758 mmHg 37%
    05:00 +27°C° 0 mm 1 mps 758 mmHg 38%
    06:00 +26°C° 0 mm 1 mps 758 mmHg 39%
    07:00 +28°C° 0 mm 1 mps 759 mmHg 36%
    08:00 +30°C° 0 mm 1 mps 759 mmHg 32%
    09:00 +32°C° 0 mm 2 mps 759 mmHg 29%
    10:00 +35°C° 0 mm 2 mps 759 mmHg 26%
    11:00 +36°C° 0 mm 2 mps 759 mmHg 24%
    12:00 +38°C° 0 mm 2 mps 759 mmHg 21%
    13:00 +39°C° 0 mm 2 mps 758 mmHg 20%
    14:00 +39°C° 0 mm 2 mps 758 mmHg 20%
    15:00 +39°C° 0 mm 2 mps 757 mmHg 20%
    16:00 +38°C° 0 mm 3 mps 757 mmHg 23%
    17:00 +37°C° 0 mm 3 mps 758 mmHg 27%
    18:00 +35°C° 0 mm 3 mps 758 mmHg 30%
    19:00 +34°C° 0 mm 3 mps 758 mmHg 35%
    20:00 +31°C° 0 mm 3 mps 759 mmHg 41%
    21:00 +30°C° 0 mm 2 mps 759 mmHg 46%
    22:00 +29°C° 0 mm 2 mps 759 mmHg 49%
    23:00 +28°C° 0 mm 2 mps 759 mmHg 51%

    26 September, Wednesday

    Time Temperature Precipitation Wind Pressure Humidity
    00:00 +28°C° 0 mm 1 mps 759 mmHg 54%
    01:00 +27°C° 0 mm 1 mps 759 mmHg 56%
    02:00 +27°C° 0 mm 1 mps 759 mmHg 58%
    03:00 +26°C° 0 mm 1 mps 759 mmHg 60%
    04:00 +26°C° 0 mm 1 mps 759 mmHg 62%
    05:00 +26°C° 0 mm 2 mps 760 mmHg 63%
    06:00 +25°C° 0 mm 2 mps 760 mmHg 65%
    07:00 +27°C° 0 mm 2 mps 760 mmHg 60%
    08:00 +28°C° 0 mm 2 mps 760 mmHg 56%
    09:00 +30°C° 0 mm 2 mps 761 mmHg 51%
    10:00 +31°C° 0 mm 3 mps 761 mmHg 45%
    11:00 +34°C° 0 mm 3 mps 761 mmHg 39%
    12:00 +36°C° 0 mm 3 mps 761 mmHg 33%
    13:00 +36°C° 0 mm 3 mps 760 mmHg 31%
    14:00 +37°C° 0 mm 3 mps 760 mmHg 29%
    15:00 +37°C° 0 mm 3 mps 759 mmHg 28%
    16:00 +36°C° 0 mm 3 mps 759 mmHg 30%
    17:00 +35°C° 0 mm 3 mps 759 mmHg 33%
    18:00 +34°C° 0 mm 3 mps 759 mmHg 35%
    19:00 +31°C° 0 mm 3 mps 760 mmHg 40%
    20:00 +30°C° 0 mm 2 mps 760 mmHg 45%
    21:00 +29°C° 0 mm 2 mps 761 mmHg 50%
    22:00 +28°C° 0.1 mm 2 mps 761 mmHg 52%
    23:00 +27°C° 0.1 mm 2 mps 761 mmHg 55%

    27 September, Thursday

    Time Temperature Precipitation Wind Pressure Humidity
    00:00 +27°C° 0.1 mm 2 mps 761 mmHg 58%
    01:00 +27°C° 0 mm 2 mps 761 mmHg 59%
    02:00 +26°C° 0 mm 2 mps 761 mmHg 61%
    03:00 +26°C° 0 mm 2 mps 761 mmHg 63%
    04:00 +26°C° 0 mm 2 mps 761 mmHg 65%
    05:00 +25°C° 0 mm 2 mps 761 mmHg 66%
    06:00 +25°C° 0 mm 2 mps 761 mmHg 68%
    07:00 +26°C° 0 mm 2 mps 761 mmHg 63%
    08:00 +28°C° 0 mm 2 mps 761 mmHg 58%
    09:00 +29°C° 0 mm 2 mps 761 mmHg 53%
    10:00 +31°C° 0 mm 2 mps 761 mmHg 47%
    11:00 +34°C° 0 mm 2 mps 761 mmHg 41%
    12:00 +35°C° 0 mm 2 mps 760 mmHg 35%
    13:00 +36°C° 0 mm 3 mps 760 mmHg 33%
    14:00 +36°C° 0 mm 3 mps 759 mmHg 31%
    15:00 +37°C° 0 mm 3 mps 758 mmHg 29%
    16:00 +36°C° 0.1 mm 3 mps 758 mmHg 32%
    17:00 +35°C° 0.1 mm 3 mps 758 mmHg 35%
    18:00 +33°C° 0.1 mm 3 mps 758 mmHg 38%
    19:00 +31°C° 0.1 mm 2 mps 758 mmHg 43%
    20:00 +30°C° 0.1 mm 2 mps 759 mmHg 48%
    21:00 +29°C° 0.1 mm 2 mps 759 mmHg 53%
    22:00 +28°C° 0 mm 2 mps 759 mmHg 56%
    23:00 +27°C° 0 mm 2 mps 758 mmHg 59%
    Show more